User: anonymous   Login
Location: Unspecified
(0.0000°N, 0.0000°E)
Time: 20:42:41
(UTC+00:00)
Language:

SR - Orbit

View from above orbital plane
View from above orbital plane
View from above satellite
View from above satellite

Ground track
Ground track

The orbit data is extracted from the following two-line orbital elements,

1    46U 60007B   17200.75104939 +.00000033 +00000-0 +29556-4 0  9998
2    46 066.6903 040.1738 0214301 205.8367 153.1917 14.49046741984971
Epoch (UTC): 19 July 2017 18:01:30
Eccentricity: 0.0214301
inclination: 66.6903°
perigee height: 576 km
apogee height: 881 km
right ascension of ascending node: 40.1738°
argument of perigee: 205.8367°
revolutions per day: 14.49046741
mean anomaly at epoch: 153.1917°
orbit number at epoch: 98497

The dashed part of the orbit path shows where the satellite is in the earth's shadow,  

DLR